Regional Weather Roundup
Issued by NWS

Home | Current Version | Previous Version | Graphics & Text | Print | Product List | Glossary On
Versions: 1 2 3 4 5 6 7 8 9 10 11 12 13 14 15 16 17 18 19 20 21 22 23 24 25 26 27 28 29 30 31 32 33 34 35 36 37 38 39 40 41 42 43 44 45 46 47 48 49 50
000
ASUS45 KABQ 040610
RWRNM
NEW MEXICO REGIONAL WEATHER ROUNDUP
NATIONAL WEATHER SERVICE ALBUQUERQUE NM
1100 PM MST SAT DEC 03 2016

NOTE: "FAIR" MEANS FEW OR NO CLOUDS BELOW 12,000 FEET AGL WITH NO
       SIGNIFICANT WEATHER OR OBSTRUCTIONS TO VISION.

      THIS PRODUCT IS RELEASED AS TWO VERSIONS.  ONE VERSION NEAR
      THE TOP OF THE HOUR CONTAINING PRELIMINARY DATA FROM ALBUQUERQUE
      AND OTHER STATIONS.  A FINAL VERSION WITH ADDITIONAL DATA IS
      ISSUED ABOUT 10 MINUTES AFTER THE HOUR.

NMZ501-503-504-510>518-040700-
NORTHWEST PLATEAU/NORTHCENTRAL MOUNTAINS

CITY           SKY/WX    TMP DP  RH WIND       PRES   REMARKS
FARMINGTON     FAIR      24  13  62 W7        30.10R WCI  16
6HR MIN TEMP:  24; 6HR MAX TEMP:  37;

LOS ALAMOS     FAIR      29  19  66 N9        30.08S WCI  21
SANTA FE       FAIR      28  21  75 N13       30.07R WCI  17
6HR MIN TEMP:  28; 6HR MAX TEMP:  38;

TAOS           FAIR      18   9  68 NE3       30.11R
ANGEL FIRE     FAIR      10   7  91 SE5       30.09R WCI   1

$$
NMZ402-403-502-505>509-040700-
WESTCENTRAL MOUNTAINS/SOUTHWEST MOUNTAINS

CITY           SKY/WX    TMP DP  RH WIND       PRES   REMARKS
GALLUP         FAIR      17  14  88 E3        30.12F
6HR MIN TEMP:  17; 6HR MAX TEMP:  36;

GRANTS         FAIR      22  19  89 N7        30.13F WCI  13
SILVER CITY    FAIR      36  34  94 NW3       30.04R

$$
NMZ407-409-411-412-040700-
SOUTHERN DESERTS

CITY           SKY/WX    TMP DP  RH WIND       PRES   REMARKS
DEMING         FAIR      40  38  93 W3        30.03R
6HR MIN TEMP:  40; 6HR MAX TEMP:  45;

LAS CRUCES     CLOUDY    44  34  68 N6        30.01S
HOLLOMAN AFB   FAIR      40  37  87 CALM      30.05S
T OR C         FAIR      39  29  67 N6        30.03S WCI  35
6HR MIN TEMP:  39; 6HR MAX TEMP:  48;


$$
NMZ519>523-040700-
CENTRAL VALLEYS/CENTRAL HIGHLANDS

CITY           SKY/WX    TMP DP  RH WIND       PRES   REMARKS
ALBUQUERQUE    FAIR      35  20  54 N8        30.11R WCI  29
6HR MIN TEMP:  35; 6HR MAX TEMP:  44;

DOUBLE EAGLE   FAIR      31  17  56 NW10      30.10S WCI  22
MORIARTY ARPT  FAIR      26  18  73 NW10      30.08R WCI  16
6HR MIN TEMP:  23; 6HR MAX TEMP:  36;

CLINES CORNERS FAIR      25  18  74 NW16      30.05R WCI  12
6HR MIN TEMP:  25; 6HR MAX TEMP:  34;

BELEN          FAIR      30  25  83 N7        30.12R WCI  23
6HR MIN TEMP:  30; 6HR MAX TEMP:  43;

SOCORRO        FAIR      37  25  62 NW21G28   30.06R WCI  26
6HR MIN TEMP:  35; 6HR MAX TEMP:  44;


$$
NMZ524>526-539-540-040700-
SOUTHCENTRAL MOUNTAINS

CITY           SKY/WX    TMP DP  RH WIND       PRES   REMARKS
RUIDOSO        FAIR      32  25  74 NW7       30.04R WCI  26

$$
NMZ527>531-040700-
NORTHEAST HIGHLANDS/NORTHEAST PLAINS

CITY           SKY/WX    TMP DP  RH WIND       PRES   REMARKS
LAS VEGAS      FAIR      23  18  81 N14       30.04R WCI  11
6HR MIN TEMP:  21; 6HR MAX TEMP:  34;

RATON          FAIR      22  14  71 VRB3      30.05R
6HR MIN TEMP:  20; 6HR MAX TEMP:  31;

CLAYTON        FAIR      31  28  89 N14       30.02R WCI  21
6HR MIN TEMP:  23; 6HR MAX TEMP:  36;


$$
NMZ532>537-040700-
EASTCENTRAL PLAINS

CITY           SKY/WX    TMP DP  RH WIND       PRES   REMARKS
TUCUMCARI      FAIR      30  29  96 W7        30.01S WCI  23
6HR MIN TEMP:  28; 6HR MAX TEMP:  38;

CANNON AFB     CLOUDY    32  32 100 N7        30.02R WCI  26
6HR MIN TEMP:  32; 6HR MAX TEMP:  38; 6HR PCP: TRACE;

CLOVIS AIRPORT CLOUDY    36  32  87 W6        30.01R VSB 1/2 WCI  31

$$
NMZ028-029-538-040700-
SOUTHEAST PLAINS

CITY           SKY/WX    TMP DP  RH WIND       PRES   REMARKS
ROSWELL        MOCLDY    36  34  92 SW3       30.01S
6HR MIN TEMP:  34; 6HR MAX TEMP:  41;

ARTESIA        CLOUDY    39  39 100 SW5       30.03R
CARLSBAD       MOCLDY    38  38 100 W5        30.02S WCI  34
6HR MIN TEMP:  38; 6HR MAX TEMP:  40;

HOBBS          CLOUDY    39  39 100 NW5       30.03S


$$




USA.gov is the U.S. government's official web portal to all federal, state and local government web resources and services.